Flag for U.S.A. Weather past 2 weeks in Plano, Texas, U.S.A.

Now
91 °F

Sunny.


Feels Like: 98 °F
Forecast: 74 / 96 °F
Wind: 7 mph from Southeast

Location: McKinney Municipal Airport

Current Time: Jul 22, 2014 at 7:45:40 PM

Latest Report: Jul 22, 2014 at 6:53 PM


Visibility: 9 mi

Pressure: 30.01 "Hg

Humidity: 54%

Dew point: 72 °F

Location of PlanoLocation

Historic Weather in Plano — Graph

°F

Plano temperature yesterday

Maximum temperature yesterday: 93 °F (at 3:53 PM)
Minimum temperature yesterday: 70 °F (at 5:53 AM)
Average temperature yesterday: 81 °F

Past Weeks' High & Low Weather Summary

 TemperatureHumidityPressure
High99 °F (Jul 13, 4:53 PM)100% (Jul 17, 8:57 AM)30.16 "Hg (Jul 17, 8:57 AM)
Low63 °F (Jul 18, 5:53 AM)25% (Jul 15, 1:53 PM)29.87 "Hg (Jul 7, 6:53 PM)
Average80 °F65%30.00 "Hg
* Reported Jul 7 11:53 AM — Jul 22 11:53 AM, Plano, Weather by CustomWeather, © 2014

Note: Actual official high and low records may vary slightly from our data, if they occured in-between our weather recording intervals... More about our weather records

Advertising

Plano weather history for previous 24 hours

 ConditionsComfort  
Time TempWeatherWind HumidityBarometerVisibility
11:53 AM
Jul 22
87 °FPassing clouds.3 mph65%30.06 "Hg7 mi
10:53 AM85 °FSunny.7 mph68%30.06 "Hg7 mi
9:53 AM82 °FSunny.8 mph74%30.07 "Hg7 mi
8:53 AM78 °FSunny.8 mph82%30.08 "Hg6 mi
7:53 AM75 °FFog.No wind90%30.07 "Hg4 mi
6:53 AM74 °FFog.3 mph94%30.04 "Hg3 mi
5:53 AM74 °FFog.No wind94%30.03 "Hg5 mi
4:53 AM75 °FFog.No wind90%30.01 "Hg5 mi
3:53 AM75 °FFog.No wind94%30.01 "Hg5 mi
2:53 AM76 °FFog.3 mph91%30.01 "Hg6 mi
1:53 AM77 °FFog.3 mph88%30.02 "Hg6 mi
12:53 AM78 °FClear.3 mph84%30.03 "Hg7 mi
11:53 PM
Jul 21
79 °FClear.5 mph82%30.01 "Hg8 mi
10:53 PM81 °FClear.3 mph74%29.99 "Hg9 mi
9:53 PM82 °FClear.5 mph72%29.98 "Hg10 mi
8:53 PM85 °FSunny.5 mph68%29.97 "Hg10 mi
7:53 PM89 °FSunny.8 mph57%29.96 "Hg10 mi
Weather by CustomWeather, © 2014

See weather overviewHow to use our weather pages